Regional Weather Roundup
Issued by NWS

Home | Current Version | Previous Version | Graphics & Text | Print | Product List | Glossary On
Versions: 1 2 3 4 5 6 7 8 9 10 11 12 13 14 15 16 17 18 19 20 21 22 23 24 25 26 27 28 29 30 31 32 33 34 35 36 37 38 39 40 41 42 43 44 45 46 47 48 49 50
000
ASUS45 KSLC 290210
RWRUT

UTAH REGIONAL WEATHER ROUNDUP
NATIONAL WEATHER SERVICE SALT LAKE CITY UT
700 PM MST WED JAN 28 2015

UTZ001>011-023>025-290300-

NORTHERN UTAH

CITY           SKY/WX    TMP DP  RH WIND       PRES   REMARKS
BRIGHAM CITY   PTCLDY    40  37  87 N5        30.34S
HILL AFB       CLOUDY    41  37  84 N3        30.32S
LOGAN          CLOUDY    38  37  97 W3        30.34R FOG
OGDEN          PTCLDY    38  36  92 CALM      30.32S
PROVO AIRPORT  MOCLDY    43  34  70 NW12      30.31R
SALT LAKE CITY MOCLDY    41  36  82 N7        30.32R
VERNAL         CLOUDY    40  28  62 SW5       30.28R
WENDOVER       PTCLDY    43  34  70 CALM      30.33R
HEBER CITY     PTCLDY    34  30  86 E5        30.31R WCI  30
WEST JORDAN    CLEAR     39  37  93 NW7       30.33R WCI  34

$$

UTZ012>022-026-027-290300-

SOUTHERN/CENTRAL UTAH

CITY           SKY/WX    TMP DP  RH WIND       PRES   REMARKS
BLANDING       MOCLDY    40  31  71 CALM      30.33R
BRYCE CANYON   CLOUDY    37  32  82 SE12      30.30R WCI  29
CEDAR CITY     CLOUDY    41  31  67 N5        30.25R
DELTA          MOCLDY    43  34  69 N8        30.29R
HANKSVILLE     CLOUDY    45  32  61 NE5       30.27R
MILFORD        CLEAR     41  31  67 N5        30.27R
MOAB/CYNLANDS  CLEAR     42  32  67 CALM      30.23R
PRICE          PTCLDY    40  26  57 N9        30.26R WCI  34
ST GEORGE      PTCLDY    54  39  58 CALM      30.23R
KANAB          MOCLDY    39  36  87 NE3       30.28R

$$

REGIONAL REPORTS     COLORADO/ARIZONA

CITY           SKY/WX    TMP DP  RH WIND       PRES   REMARKS
CRAIG, CO      CLOUDY    35  31  85 CALM      30.29R
GRAND JUNCTION CLOUDY    43  33  68 CALM      30.25R
RIFLE          CLOUDY    43  30  60 W5        30.26R
MONTROSE       CLOUDY    40  28  62 E6        30.28R
CORTEZ         CLEAR     35  25  66 E3        30.26R
PAGE, AZ       NOT AVBL
GRAND CANYON   CLOUDY    39  31  72 NE3       30.27R
KINGMAN        CLOUDY    52  45  77 NE6       30.20R
FLAGSTAFF      CLOUDY    40  30  67 E5        30.28R

$$

REGIONAL REPORTS    NEVADA/IDAHO/WYOMING

CITY           SKY/WX    TMP DP  RH WIND       PRES   REMARKS
LAS VEGAS, NV  CLOUDY    61  42  49 SW5       30.15S
ELY            PTCLDY    40  30  67 CALM      30.29R
ELKO           CLEAR     40  34  79 CALM      30.31R
POCATELLO, ID  CLOUDY    35  35 100 CALM      30.37R
BURLEY         FOG       36  35  96 N6        30.35R VSB 1/4 WCI  31
EVANSTON, WY   PTCLDY    34  29  82 NW8       30.32R WCI  27
ROCK SPRINGS   CLOUDY    36  29  75 SW12      30.29R WCI  28
KEMMERER       PTCLDY    32  32 100 W8        30.32R WCI  25

$$


USA.gov is the U.S. government's official web portal to all federal, state and local government web resources and services.